Weather History for KLEE - April, 2012

Change the Weather History Date:

Saturday, April 28, 2012

  Actual Average (KMCO) Record (KMCO)
Temperature  
Mean Temperature 76 °F 74 °F  
Max Temperature 89 °F 85 °F 95 °F (2011)
Min Temperature 64 °F 62 °F 48 °F (1977)
Degree Days  
Heating Degree Days 0 0  
Month to date heating degree days 11  
Since 1 July heating degree days 569  
Cooling Degree Days 12 9  
Month to date cooling degree days 182  
Year to date cooling degree days 404  
Growing Degree Days 26 (Base 50)    
Moisture  
Dew Point 64 °F    
Average Humidity 66    
Maximum Humidity 93    
Minimum Humidity 38    
Precipitation  
Precipitation 0.00 in 0.08 in 2.64 in (1928)
Month to date precipitation 2.54  
Year to date precipitation 11.04  
Sea Level Pressure  
Sea Level Pressure 30.09 in    
Wind  
Wind Speed 3 mph (SE)    
Max Wind Speed 14 mph    
Max Gust Speed -    
Visibility 10 miles    
Events      
T = Trace of Precipitation, MM = Missing Value Source: NWS Daily Summary

Daily Weather History Graph

Daily Weather History Graph

Search for Another Location

Airport or City:

Trip Planner

Search our weather history database for the weather conditions in past years. The results will help you decide how hot, cold, wet, or windy it might be!

Date:

Astronomy

Apr. 28, 2012 Rise Set
Actual Time 6:48 AM EDT 8:01 PM EDT
Civil Twilight 6:23 AM EDT 8:26 PM EDT
Nautical Twilight 5:53 AM EDT 8:55 PM EDT
Astronomical Twilight 5:23 AM EDT 9:26 PM EDT
Moon 12:28 PM EDT (4/28) 1:21 AM EDT (4/28)
Length of Visible Light 14h 02m
Length of Day
13h 13m
Waxing Crescent, 42% of the Moon is Illuminated
Apr 28
Waxing Crescent
Apr 29
First Quarter
May 5
Full
May 12
Last Quarter
May 20
New

Hourly Weather History & Observations

Time (EDT) Temp. Heat Index Dew Point Humidity Pressure Visibility Wind Dir Wind Speed Gust Speed Precip Events Conditions
12:53 AM 68.0 °F - 61.0 °F 78% 30.12 in 10.0 mi Calm Calm - N/A   Clear
1:53 AM 68.0 °F - 62.1 °F 81% 30.11 in 10.0 mi Calm Calm - N/A   Clear
3:53 AM 71.1 °F - 64.9 °F 81% 30.08 in 10.0 mi South 3.5 mph - N/A   Clear
4:53 AM 69.1 °F - 64.9 °F 87% 30.07 in 10.0 mi SE 4.6 mph - N/A   Clear
5:53 AM 66.0 °F - 64.0 °F 93% 30.08 in 10.0 mi Calm Calm - N/A   Clear
6:53 AM 64.9 °F - 63.0 °F 93% 30.10 in 8.0 mi Calm Calm - N/A   Clear
7:53 AM 70.0 °F - 66.9 °F 90% 30.12 in 10.0 mi SSE 4.6 mph - N/A   Clear
8:53 AM 72.0 °F - 66.9 °F 84% 30.13 in 10.0 mi SSE 4.6 mph - N/A   Clear
9:53 AM 75.0 °F - 66.0 °F 73% 30.13 in 10.0 mi Calm Calm - N/A   Clear
10:53 AM 79.0 °F - 66.0 °F 64% 30.14 in 10.0 mi Variable 3.5 mph - N/A   Clear
11:53 AM 81.0 °F 82.7 °F 64.9 °F 58% 30.12 in 10.0 mi South 4.6 mph - N/A   Clear
12:53 PM 86.0 °F 86.3 °F 62.1 °F 44% 30.11 in 10.0 mi ENE 8.1 mph - N/A   Clear
1:53 PM 84.9 °F 85.0 °F 61.0 °F 44% 30.09 in 10.0 mi East 3.5 mph - N/A   Overcast
2:53 PM 86.0 °F 86.3 °F 62.1 °F 44% 30.07 in 10.0 mi South 4.6 mph - N/A   Overcast
3:53 PM 87.1 °F 87.0 °F 61.0 °F 41% 30.05 in 10.0 mi South 5.8 mph - N/A   Partly Cloudy
4:53 PM 89.1 °F 88.8 °F 60.1 °F 38% 30.04 in 10.0 mi SE 3.5 mph - N/A   Clear
5:53 PM 87.1 °F 86.7 °F 60.1 °F 40% 30.04 in 10.0 mi SE 5.8 mph - N/A   Mostly Cloudy
6:53 PM 84.9 °F 86.6 °F 64.9 °F 51% 30.04 in 10.0 mi ESE 13.8 mph - N/A   Clear
7:53 PM 82.0 °F 83.1 °F 63.0 °F 52% 30.06 in 10.0 mi ESE 9.2 mph - N/A   Clear
9:53 PM 78.1 °F - 64.9 °F 64% 30.10 in 10.0 mi SE 9.2 mph - N/A   Clear
10:53 PM 75.0 °F - 66.9 °F 76% 30.12 in 10.0 mi SE 8.1 mph - N/A   Clear
11:53 PM 73.9 °F - 68.0 °F 82% 30.12 in 10.0 mi SE 8.1 mph - N/A   Clear